Location: Zeiss-Gro�planetarium Berlin
(52.5430°N, 13.4281°E)
Time: 22:47:46
(UTC+01:00)

ISS - Pass Details

Date: 30 September 2020
Orbit: 417 x 420 km, 51.6° (Epoch: 27 October)

Event Time Altitude Azimuth Distance (km) Brightness Sun altitude
Rises 20:16:55 0° 280° (W) 2,370 2.0 -14.7°
Reaches altitude 10° 20:19:03 10° 275° (W) 1,505 0.4 -15.0°
Maximum altitude 20:22:20 51° 198° (SSW) 540 -3.3 -15.5°
Enters shadow 20:23:33 32° 141° (SE) 749 -2.9 -15.7°
